| time (UTC) | temp C | wind direction | speed KPH | gust KPH | rain 1hr cm | rain 24hr cm | rain mn cm | humidity % | barometer mb |
| 20260508004005 | 18 | 15 | 3.2 | 3.2 | 0.00 | 0.00 | 0.00 | 71 | 1017.1 |
| 20260508002505 | 18 | 148 | 1.6 | 3.2 | 0.00 | 0.00 | 0.00 | 71 | 1017.2 |
| 20260508002005 | 18 | 217 | 1.6 | 3.2 | 0.00 | 0.00 | 0.00 | 71 | 1017.4 |
| 20260508001506 | 18 | 35 | 1.6 | 1.6 | 0.00 | 0.00 | 0.00 | 72 | 1017.4 |
| 20260508001006 | 18 | 59 | 1.6 | 1.6 | 0.00 | 0.00 | 0.00 | 71 | 1017.3 |
| 20260508000505 | 18 | 80 | 1.6 | 1.6 | 0.00 | 0.00 | 0.00 | 71 | 1017.3 |
| 20260507235506 | 18 | 175 | 1.6 | 3.2 | 0.00 | 0.00 | 0.00 | 72 | 1017.5 |
| 20260507235006 | 18 | 53 | 0.0 | 1.6 | 0.00 | 0.00 | 0.00 | 73 | 1017.6 |
| 20260507233507 | 18 | 155 | 1.6 | 1.6 | 0.00 | 0.00 | 0.00 | 73 | 1017.7 |
| 20260507233006 | 18 | 184 | 1.6 | 1.6 | 0.00 | 0.00 | 0.00 | 73 | 1018.0 |
| 20260507232505 | 18 | 185 | 1.6 | 3.2 | 0.00 | 0.00 | 0.00 | 73 | 1017.9 |
| 20260507232005 | 18 | 165 | 1.6 | 3.2 | 0.00 | 0.00 | 0.00 | 72 | 1018.0 |
| 20260507231507 | 18 | 142 | 1.6 | 3.2 | 0.00 | 0.00 | 0.00 | 72 | 1018.1 |
| 20260507231005 | 18 | 90 | 3.2 | 4.8 | 0.00 | 0.00 | 0.00 | 72 | 1018.0 |
| 20260507230505 | 18 | 70 | 3.2 | 4.8 | 0.00 | 0.00 | 0.00 | 71 | 1018.1 |
| 20260507230006 | 18 | 131 | 1.6 | 3.2 | 0.00 | 0.00 | 0.00 | 71 | 1018.0 |
| 20260507225505 | 18 | 216 | 0.0 | 1.6 | 0.00 | 0.00 | 0.00 | 71 | 1017.9 |
| 20260507225005 | 18 | 220 | 0.0 | 1.6 | 0.00 | 0.00 | 0.00 | 71 | 1018.2 |
| 20260507224506 | 18 | 205 | 1.6 | 1.6 | 0.00 | 0.00 | 0.00 | 71 | 1018.1 |
| 20260507224006 | 18 | 213 | 1.6 | 1.6 | 0.00 | 0.00 | 0.00 | 70 | 1018.2 |
| 20260507223508 | 18 | 227 | 3.2 | 4.8 | 0.00 | 0.00 | 0.00 | 70 | 1018.2 |
| 20260507223006 | 18 | 215 | 3.2 | 4.8 | 0.00 | 0.00 | 0.00 | 70 | 1018.2 |
| 20260507222506 | 18 | 227 | 3.2 | 4.8 | 0.00 | 0.00 | 0.00 | 71 | 1018.2 |
| 20260507222008 | 18 | 248 | 1.6 | 3.2 | 0.00 | 0.00 | 0.00 | 72 | 1018.2 |
| 20260507221505 | 18 | 31 | 1.6 | 1.6 | 0.00 | 0.00 | 0.00 | 72 | 1018.3 |
| 20260507221006 | 18 | 43 | 1.6 | 1.6 | 0.00 | 0.00 | 0.00 | 72 | 1018.4 |
| 20260507220505 | 18 | 25 | 1.6 | 1.6 | 0.00 | 0.00 | 0.00 | 73 | 1018.3 |
| 20260507220005 | 18 | 45 | 1.6 | 3.2 | 0.00 | 0.00 | 0.00 | 73 | 1018.2 |
| 20260507215506 | 18 | 65 | 1.6 | 3.2 | 0.00 | 0.00 | 0.00 | 73 | 1018.4 |
| 20260507215005 | 18 | 33 | 1.6 | 1.6 | 0.00 | 0.00 | 0.00 | 73 | 1018.4 |
| 20260507214505 | 18 | 67 | 3.2 | 4.8 | 0.00 | 0.00 | 0.00 | 72 | 1018.4 |
| 20260507214006 | 18 | 87 | 3.2 | 4.8 | 0.00 | 0.00 | 0.00 | 72 | 1018.3 |
| 20260507213005 | 19 | 215 | 1.6 | 3.2 | 0.00 | 0.00 | 0.00 | 70 | 1018.4 |
| 20260507212505 | 19 | 214 | 1.6 | 3.2 | 0.00 | 0.00 | 0.00 | 69 | 1018.6 |
| 20260507212006 | 19 | 328 | 1.6 | 3.2 | 0.00 | 0.00 | 0.00 | 68 | 1018.5 |
| 20260507211506 | 19 | 343 | 1.6 | 1.6 | 0.00 | 0.00 | 0.00 | 67 | 1018.6 |
| 20260507211005 | 19 | 227 | 1.6 | 3.2 | 0.00 | 0.00 | 0.00 | 68 | 1018.7 |
| 20260507210506 | 19 | 186 | 1.6 | 3.2 | 0.00 | 0.00 | 0.00 | 68 | 1018.8 |
| 20260507210007 | 19 | 92 | 1.6 | 4.8 | 0.00 | 0.00 | 0.00 | 69 | 1018.7 |
| 20260507205505 | 19 | 91 | 3.2 | 4.8 | 0.00 | 0.00 | 0.00 | 69 | 1018.6 |
| 20260507204509 | 19 | 215 | 1.6 | 3.2 | 0.00 | 0.00 | 0.00 | 69 | 1018.8 |
| 20260507204005 | 19 | 203 | 1.6 | 3.2 | 0.00 | 0.00 | 0.00 | 69 | 1019.0 |
| 20260507203006 | 19 | 116 | 1.6 | 1.6 | 0.00 | 0.00 | 0.00 | 70 | 1019.0 |
| 20260507202506 | 19 | 80 | 1.6 | 1.6 | 0.00 | 0.00 | 0.00 | 70 | 1019.0 |
| 20260507202006 | 19 | 48 | 1.6 | 3.2 | 0.00 | 0.00 | 0.00 | 70 | 1018.9 |
| 20260507201506 | 19 | 18 | 3.2 | 3.2 | 0.00 | 0.00 | 0.00 | 70 | 1019.1 |
| 20260507200505 | 19 | 5 | 3.2 | 4.8 | 0.00 | 0.00 | 0.00 | 70 | 1018.8 |
| 20260507200005 | 19 | 242 | 3.2 | 4.8 | 0.00 | 0.00 | 0.00 | 70 | 1018.8 |
| 20260507195506 | 19 | 230 | 3.2 | 4.8 | 0.00 | 0.00 | 0.00 | 70 | 1019.0 |
| 20260507195006 | 19 | 233 | 3.2 | 6.4 | 0.00 | 0.00 | 0.00 | 70 | 1018.8 |
| 20260507194505 | 19 | 236 | 4.8 | 6.4 | 0.00 | 0.00 | 0.00 | 70 | 1018.9 |
| 20260507194006 | 19 | 234 | 4.8 | 6.4 | 0.00 | 0.00 | 0.00 | 70 | 1019.0 |
| 20260507193506 | 19 | 231 | 4.8 | 6.4 | 0.00 | 0.00 | 0.00 | 70 | 1018.8 |
| 20260507193005 | 19 | 226 | 4.8 | 6.4 | 0.00 | 0.00 | 0.00 | 70 | 1018.7 |
| 20260507192505 | 19 | 218 | 3.2 | 4.8 | 0.00 | 0.00 | 0.00 | 69 | 1018.6 |
| 20260507192006 | 19 | 188 | 3.2 | 4.8 | 0.00 | 0.00 | 0.00 | 70 | 1018.8 |
| 20260507191505 | 19 | 167 | 3.2 | 4.8 | 0.00 | 0.00 | 0.00 | 70 | 1018.7 |
| 20260507190506 | 19 | 110 | 3.2 | 4.8 | 0.00 | 0.00 | 0.00 | 70 | 1018.5 |
| 20260507190006 | 19 | 177 | 3.2 | 4.8 | 0.00 | 0.00 | 0.00 | 70 | 1018.5 |
| 20260507185505 | 19 | 211 | 3.2 | 4.8 | 0.00 | 0.00 | 0.00 | 70 | 1018.5 |
| 20260507185006 | 19 | 118 | 3.2 | 3.2 | 0.00 | 0.00 | 0.00 | 70 | 1018.5 |
| 20260507183507 | 19 | 75 | 3.2 | 4.8 | 0.00 | 0.00 | 0.00 | 70 | 1018.1 |
| 20260507182506 | 20 | 45 | 3.2 | 4.8 | 0.00 | 0.00 | 0.00 | 70 | 1017.9 |
| 20260507182005 | 20 | 58 | 3.2 | 8.0 | 0.00 | 0.00 | 0.00 | 70 | 1017.7 |
| 20260507181506 | 20 | 154 | 4.8 | 8.0 | 0.00 | 0.00 | 0.00 | 71 | 1017.6 |
| 20260507181006 | 20 | 82 | 4.8 | 8.0 | 0.00 | 0.00 | 0.00 | 70 | 1017.4 |
| 20260507180514 | 20 | 96 | 6.4 | 8.0 | 0.00 | 0.00 | 0.00 | 70 | 1017.6 |
| 20260507180006 | 20 | 111 | 6.4 | 8.0 | 0.00 | 0.00 | 0.00 | 69 | 1017.7 |
| 20260507175506 | 20 | 101 | 6.4 | 8.0 | 0.00 | 0.00 | 0.00 | 68 | 1017.6 |
| 20260507174505 | 20 | 85 | 6.4 | 9.7 | 0.00 | 0.00 | 0.00 | 67 | 1017.7 |
| 20260507173506 | 20 | 89 | 4.8 | 8.0 | 0.00 | 0.00 | 0.00 | 67 | 1017.7 |
| 20260507172506 | 20 | 87 | 6.4 | 9.7 | 0.00 | 0.00 | 0.00 | 66 | 1017.8 |
| 20260507172006 | 20 | 84 | 6.4 | 11.3 | 0.00 | 0.00 | 0.00 | 66 | 1017.8 |
| 20260507171007 | 21 | 127 | 8.0 | 11.3 | 0.00 | 0.00 | 0.00 | 65 | 1017.6 |
| 20260507170506 | 21 | 117 | 9.7 | 11.3 | 0.00 | 0.00 | 0.00 | 65 | 1017.6 |
| 20260507170006 | 21 | 90 | 6.4 | 9.7 | 0.00 | 0.00 | 0.00 | 65 | 1017.5 |
| 20260507165505 | 21 | 88 | 6.4 | 8.0 | 0.00 | 0.00 | 0.00 | 65 | 1017.9 |
| 20260507165006 | 21 | 109 | 8.0 | 8.0 | 0.00 | 0.00 | 0.00 | 64 | 1017.7 |
| 20260507164505 | 21 | 110 | 6.4 | 11.3 | 0.00 | 0.00 | 0.00 | 62 | 1018.0 |
| 20260507164005 | 22 | 112 | 8.0 | 11.3 | 0.00 | 0.00 | 0.00 | 62 | 1017.8 |
| 20260507163505 | 22 | 111 | 8.0 | 11.3 | 0.00 | 0.00 | 0.00 | 60 | 1017.6 |
| 20260507163006 | 22 | 101 | 8.0 | 11.3 | 0.00 | 0.00 | 0.00 | 59 | 1017.6 |
| 20260507162505 | 22 | 124 | 9.7 | 11.3 | 0.00 | 0.00 | 0.00 | 55 | 1017.6 |
| 20260507162006 | 22 | 106 | 9.7 | 12.9 | 0.00 | 0.00 | 0.00 | 54 | 1017.6 |
| 20260507160505 | 23 | 86 | 8.0 | 12.9 | 0.00 | 0.00 | 0.00 | 52 | 1017.6 |
| 20260507160006 | 23 | 94 | 9.7 | 12.9 | 0.00 | 0.00 | 0.00 | 52 | 1017.7 |
| 20260507155506 | 23 | 99 | 9.7 | 12.9 | 0.00 | 0.00 | 0.00 | 53 | 1017.5 |
| 20260507155005 | 23 | 86 | 9.7 | 11.3 | 0.00 | 0.00 | 0.00 | 53 | 1017.6 |
| 20260507154505 | 23 | 100 | 9.7 | 12.9 | 0.00 | 0.00 | 0.00 | 53 | 1017.5 |
| 20260507154007 | 23 | 110 | 9.7 | 12.9 | 0.00 | 0.00 | 0.00 | 54 | 1017.5 |
| 20260507153505 | 23 | 103 | 9.7 | 11.3 | 0.00 | 0.00 | 0.00 | 55 | 1017.5 |
| 20260507153005 | 23 | 117 | 9.7 | 14.5 | 0.00 | 0.00 | 0.00 | 55 | 1017.4 |
| 20260507151505 | 23 | 80 | 11.3 | 12.9 | 0.00 | 0.00 | 0.00 | 54 | 1017.5 |
| 20260507150006 | 23 | 118 | 9.7 | 14.5 | 0.00 | 0.00 | 0.00 | 50 | 1017.6 |
| 20260507145005 | 23 | 99 | 12.9 | 16.1 | 0.00 | 0.00 | 0.00 | 48 | 1017.6 |
| 20260507144505 | 23 | 95 | 12.9 | 16.1 | 0.00 | 0.00 | 0.00 | 47 | 1017.4 |
| 20260507144015 | 24 | 105 | 11.3 | 14.5 | 0.00 | 0.00 | 0.00 | 47 | 1017.5 |
| 20260507143505 | 24 | 112 | 12.9 | 14.5 | 0.00 | 0.00 | 0.00 | 45 | 1017.4 |
| 20260507143005 | 24 | 112 | 12.9 | 17.7 | 0.00 | 0.00 | 0.00 | 45 | 1017.3 |
| 20260507142005 | 25 | 85 | 11.3 | 14.5 | 0.00 | 0.00 | 0.00 | 45 | 1017.6 |
| 20260507135506 | 25 | 128 | 9.7 | 14.5 | 0.00 | 0.00 | 0.00 | 43 | 1017.6 |
| 20260507135005 | 25 | 157 | 11.3 | 16.1 | 0.00 | 0.00 | 0.00 | 42 | 1017.5 |
| 20260507134505 | 25 | 171 | 11.3 | 16.1 | 0.00 | 0.00 | 0.00 | 40 | 1017.5 |
| 20260507134019 | 26 | 83 | 9.7 | 12.9 | 0.00 | 0.00 | 0.00 | 39 | 1017.4 |
| 20260507133505 | 26 | 112 | 9.7 | 11.3 | 0.00 | 0.00 | 0.00 | 38 | 1017.5 |
| 20260507133006 | 26 | 154 | 9.7 | 11.3 | 0.00 | 0.00 | 0.00 | 37 | 1017.5 |
| 20260507132505 | 26 | 141 | 8.0 | 11.3 | 0.00 | 0.00 | 0.00 | 36 | 1017.3 |
| 20260507131006 | 26 | 109 | 8.0 | 11.3 | 0.00 | 0.00 | 0.00 | 36 | 1017.4 |
| 20260507130505 | 26 | 134 | 8.0 | 11.3 | 0.00 | 0.00 | 0.00 | 36 | 1017.5 |
| 20260507130005 | 26 | 148 | 8.0 | 11.3 | 0.00 | 0.00 | 0.00 | 36 | 1017.5 |
| 20260507125006 | 26 | 113 | 6.4 | 8.0 | 0.00 | 0.00 | 0.00 | 36 | 1017.3 |
| 20260507124505 | 26 | 111 | 8.0 | 12.9 | 0.00 | 0.00 | 0.00 | 35 | 1017.6 |
| 20260507124005 | 26 | 104 | 11.3 | 14.5 | 0.00 | 0.00 | 0.00 | 35 | 1017.5 |
| 20260507123506 | 26 | 82 | 11.3 | 14.5 | 0.00 | 0.00 | 0.00 | 32 | 1017.7 |
| 20260507123005 | 26 | 90 | 8.0 | 14.5 | 0.00 | 0.00 | 0.00 | 31 | 1017.8 |
| 20260507122006 | 26 | 135 | 6.4 | 11.3 | 0.00 | 0.00 | 0.00 | 33 | 1017.8 |
| 20260507121505 | 26 | 107 | 6.4 | 11.3 | 0.00 | 0.00 | 0.00 | 35 | 1018.0 |
| 20260507121005 | 25 | 135 | 8.0 | 9.7 | 0.00 | 0.00 | 0.00 | 36 | 1017.9 |
| 20260507120505 | 25 | 100 | 6.4 | 9.7 | 0.00 | 0.00 | 0.00 | 36 | 1018.1 |
| 20260507120006 | 25 | 95 | 6.4 | 8.0 | 0.00 | 0.00 | 0.00 | 39 | 1017.9 |
| 20260507115505 | 24 | 86 | 8.0 | 9.7 | 0.00 | 0.00 | 0.00 | 40 | 1017.9 |
| 20260507114506 | 24 | 93 | 6.4 | 9.7 | 0.00 | 0.00 | 0.00 | 42 | 1018.1 |
| 20260507114005 | 24 | 94 | 6.4 | 9.7 | 0.00 | 0.00 | 0.00 | 42 | 1018.1 |
| 20260507113505 | 24 | 80 | 4.8 | 8.0 | 0.00 | 0.00 | 0.00 | 44 | 1018.2 |
| 20260507113006 | 24 | 104 | 8.0 | 11.3 | 0.00 | 0.00 | 0.00 | 44 | 1018.2 |
| 20260507112505 | 24 | 117 | 8.0 | 11.3 | 0.00 | 0.00 | 0.00 | 44 | 1018.1 |
| 20260507112005 | 24 | 122 | 6.4 | 11.3 | 0.00 | 0.00 | 0.00 | 45 | 1017.9 |
| 20260507111519 | 24 | 134 | 9.7 | 11.3 | 0.00 | 0.00 | 0.00 | 45 | 1018.1 |
| 20260507111005 | 24 | 126 | 9.7 | 11.3 | 0.00 | 0.00 | 0.00 | 45 | 1018.3 |
| 20260507110505 | 24 | 95 | 9.7 | 11.3 | 0.00 | 0.00 | 0.00 | 45 | 1018.2 |
| 20260507110006 | 25 | 90 | 6.4 | 11.3 | 0.00 | 0.00 | 0.00 | 44 | 1018.4 |
| 20260507105505 | 25 | 113 | 4.8 | 11.3 | 0.00 | 0.00 | 0.00 | 42 | 1018.2 |
| 20260507105005 | 25 | 138 | 4.8 | 4.8 | 0.00 | 0.00 | 0.00 | 42 | 1018.4 |
| 20260507104509 | 25 | 160 | 4.8 | 8.0 | 0.00 | 0.00 | 0.00 | 42 | 1018.5 |
| 20260507104005 | 25 | 157 | 4.8 | 8.0 | 0.00 | 0.00 | 0.00 | 42 | 1018.5 |
| 20260507103505 | 25 | 161 | 4.8 | 9.7 | 0.00 | 0.00 | 0.00 | 42 | 1018.3 |
| 20260507103006 | 24 | 139 | 4.8 | 9.7 | 0.00 | 0.00 | 0.00 | 41 | 1018.2 |
| 20260507102505 | 24 | 99 | 3.2 | 8.0 | 0.00 | 0.00 | 0.00 | 41 | 1018.3 |
| 20260507101507 | 24 | 205 | 6.4 | 8.0 | 0.00 | 0.00 | 0.00 | 38 | 1018.2 |
| 20260507101005 | 25 | 190 | 4.8 | 8.0 | 0.00 | 0.00 | 0.00 | 38 | 1018.0 |
| 20260507100509 | 25 | 174 | 4.8 | 6.4 | 0.00 | 0.00 | 0.00 | 39 | 1018.0 |
| 20260507100005 | 25 | 162 | 4.8 | 6.4 | 0.00 | 0.00 | 0.00 | 40 | 1018.1 |
| 20260507095505 | 24 | 149 | 4.8 | 6.4 | 0.00 | 0.00 | 0.00 | 41 | 1018.0 |
| 20260507094505 | 23 | 191 | 4.8 | 6.4 | 0.00 | 0.00 | 0.00 | 45 | 1018.0 |
| 20260507094005 | 23 | 213 | 6.4 | 8.0 | 0.00 | 0.00 | 0.00 | 45 | 1018.0 |
| 20260507093506 | 23 | 199 | 4.8 | 8.0 | 0.00 | 0.00 | 0.00 | 43 | 1017.8 |
| 20260507093009 | 23 | 202 | 3.2 | 4.8 | 0.00 | 0.00 | 0.00 | 45 | 1018.1 |
| 20260507092505 | 22 | 209 | 6.4 | 9.7 | 0.00 | 0.00 | 0.00 | 45 | 1018.2 |
| 20260507091506 | 22 | 233 | 6.4 | 8.0 | 0.00 | 0.00 | 0.00 | 49 | 1018.3 |
| 20260507091006 | 22 | 226 | 6.4 | 8.0 | 0.00 | 0.00 | 0.00 | 48 | 1018.0 |
| 20260507090505 | 22 | 214 | 6.4 | 8.0 | 0.00 | 0.00 | 0.00 | 48 | 1018.3 |
| 20260507090006 | 22 | 218 | 4.8 | 8.0 | 0.00 | 0.00 | 0.00 | 47 | 1018.2 |
| 20260507085506 | 22 | 238 | 6.4 | 8.0 | 0.00 | 0.00 | 0.00 | 47 | 1018.1 |
| 20260507085008 | 22 | 247 | 4.8 | 8.0 | 0.00 | 0.00 | 0.00 | 47 | 1018.0 |
| 20260507084005 | 21 | 228 | 4.8 | 8.0 | 0.00 | 0.00 | 0.00 | 47 | 1018.1 |
| 20260507083506 | 21 | 214 | 4.8 | 8.0 | 0.00 | 0.00 | 0.00 | 47 | 1017.8 |
| 20260507083006 | 22 | 208 | 4.8 | 8.0 | 0.00 | 0.00 | 0.00 | 47 | 1017.9 |
| 20260507082505 | 22 | 178 | 4.8 | 6.4 | 0.00 | 0.00 | 0.00 | 46 | 1017.8 |
| 20260507082005 | 22 | 157 | 4.8 | 6.4 | 0.00 | 0.00 | 0.00 | 46 | 1018.0 |
| 20260507081505 | 22 | 166 | 4.8 | 6.4 | 0.00 | 0.00 | 0.00 | 46 | 1017.9 |
| 20260507081019 | 22 | 177 | 4.8 | 6.4 | 0.00 | 0.00 | 0.00 | 43 | 1017.8 |
| 20260507080005 | 22 | 149 | 3.2 | 4.8 | 0.00 | 0.00 | 0.00 | 47 | 1018.0 |
| 20260507075005 | 21 | 197 | 4.8 | 4.8 | 0.00 | 0.00 | 0.00 | 48 | 1018.1 |
| 20260507074505 | 20 | 200 | 3.2 | 4.8 | 0.00 | 0.00 | 0.00 | 48 | 1017.9 |
| 20260507074005 | 20 | 173 | 4.8 | 8.0 | 0.00 | 0.00 | 0.00 | 49 | 1017.8 |
| 20260507073506 | 20 | 188 | 6.4 | 9.7 | 0.00 | 0.00 | 0.00 | 49 | 1017.9 |
| 20260507072505 | 20 | 207 | 4.8 | 6.4 | 0.00 | 0.00 | 0.00 | 50 | 1017.8 |
| 20260507072006 | 20 | 207 | 4.8 | 6.4 | 0.00 | 0.00 | 0.00 | 51 | 1017.9 |
| 20260507071506 | 20 | 178 | 4.8 | 4.8 | 0.00 | 0.00 | 0.00 | 51 | 1017.8 |
| 20260507071006 | 20 | 164 | 3.2 | 4.8 | 0.00 | 0.00 | 0.00 | 52 | 1018.0 |
| 20260507070505 | 20 | 181 | 3.2 | 4.8 | 0.00 | 0.00 | 0.00 | 54 | 1017.7 |
| 20260507065505 | 18 | 211 | 6.4 | 8.0 | 0.00 | 0.00 | 0.00 | 57 | 1017.8 |
| 20260507065006 | 18 | 199 | 6.4 | 8.0 | 0.00 | 0.00 | 0.00 | 57 | 1017.9 |
| 20260507064005 | 18 | 191 | 3.2 | 6.4 | 0.00 | 0.00 | 0.00 | 58 | 1018.1 |
| 20260507063006 | 17 | 189 | 4.8 | 6.4 | 0.00 | 0.00 | 0.00 | 61 | 1018.2 |
| 20260507062505 | 17 | 197 | 4.8 | 4.8 | 0.00 | 0.00 | 0.00 | 66 | 1018.3 |
| 20260507061505 | 17 | 208 | 6.4 | 8.0 | 0.00 | 0.00 | 0.00 | 66 | 1018.1 |
| 20260507061005 | 17 | 206 | 6.4 | 8.0 | 0.00 | 0.00 | 0.00 | 66 | 1018.1 |
| 20260507060507 | 17 | 201 | 6.4 | 8.0 | 0.00 | 0.00 | 0.00 | 66 | 1018.2 |
| 20260507060005 | 17 | 204 | 6.4 | 8.0 | 0.00 | 0.00 | 0.00 | 66 | 1018.1 |
| 20260507054006 | 17 | 211 | 6.4 | 6.4 | 0.00 | 0.00 | 0.00 | 66 | 1017.9 |
| 20260507053505 | 17 | 220 | 4.8 | 4.8 | 0.00 | 0.00 | 0.00 | 66 | 1017.9 |
| 20260507053005 | 17 | 199 | 3.2 | 4.8 | 0.00 | 0.00 | 0.00 | 63 | 1017.5 |
| 20260507052005 | 17 | 103 | 1.6 | 3.2 | 0.00 | 0.00 | 0.00 | 64 | 1017.6 |
| 20260507051507 | 17 | 168 | 3.2 | 4.8 | 0.00 | 0.00 | 0.00 | 63 | 1017.5 |
| 20260507050505 | 17 | 176 | 3.2 | 4.8 | 0.00 | 0.00 | 0.00 | 59 | 1017.4 |
| 20260507050005 | 18 | 224 | 1.6 | 3.2 | 0.00 | 0.00 | 0.00 | 58 | 1017.3 |
| 20260507045505 | 18 | 228 | 3.2 | 3.2 | 0.00 | 0.00 | 0.00 | 58 | 1017.2 |
| 20260507045005 | 17 | 217 | 1.6 | 3.2 | 0.00 | 0.00 | 0.00 | 57 | 1017.2 |
| 20260507044005 | 17 | 51 | 1.6 | 1.6 | 0.00 | 0.00 | 0.00 | 61 | 1016.8 |
| 20260507043505 | 17 | 102 | 1.6 | 1.6 | 0.00 | 0.00 | 0.00 | 58 | 1016.9 |
| 20260507043006 | 16 | 77 | 1.6 | 3.2 | 0.00 | 0.00 | 0.00 | 58 | 1017.0 |
| 20260507042505 | 16 | 59 | 1.6 | 3.2 | 0.00 | 0.00 | 0.00 | 57 | 1017.0 |
| 20260507042005 | 16 | 80 | 1.6 | 3.2 | 0.00 | 0.00 | 0.00 | 57 | 1016.8 |
| 20260507041506 | 16 | 227 | 1.6 | 4.8 | 0.00 | 0.00 | 0.00 | 57 | 1017.1 |
| 20260507041005 | 16 | 208 | 1.6 | 4.8 | 0.00 | 0.00 | 0.00 | 57 | 1017.0 |
| 20260507040006 | 16 | 45 | 1.6 | 1.6 | 0.00 | 0.00 | 0.00 | 58 | 1017.0 |
| 20260507034505 | 16 | 10 | 1.6 | 3.2 | 0.00 | 0.00 | 0.00 | 59 | 1016.8 |
| 20260507033505 | 16 | 270 | 3.2 | 4.8 | 0.00 | 0.00 | 0.00 | 58 | 1017.0 |
| 20260507033005 | 16 | 287 | 1.6 | 4.8 | 0.00 | 0.00 | 0.00 | 61 | 1016.8 |
| 20260507031506 | 16 | 52 | 3.2 | 3.2 | 0.00 | 0.00 | 0.00 | 61 | 1016.9 |
| 20260507031005 | 15 | 59 | 1.6 | 3.2 | 0.00 | 0.00 | 0.00 | 61 | 1016.8 |
| 20260507030505 | 15 | 72 | 1.6 | 3.2 | 0.00 | 0.00 | 0.00 | 63 | 1016.8 |
| 20260507025505 | 15 | 145 | 1.6 | 1.6 | 0.00 | 0.00 | 0.00 | 62 | 1016.7 |
| 20260507024505 | 16 | 281 | 1.6 | 3.2 | 0.00 | 0.00 | 0.00 | 64 | 1016.7 |
| 20260507024008 | 16 | 3 | 1.6 | 3.2 | 0.00 | 0.00 | 0.00 | 62 | 1016.5 |
| 20260507023506 | 17 | 54 | 3.2 | 4.8 | 0.00 | 0.00 | 0.00 | 60 | 1016.6 |
| 20260507023005 | 17 | 74 | 3.2 | 4.8 | 0.00 | 0.00 | 0.00 | 56 | 1016.5 |
| 20260507022006 | 17 | 45 | 1.6 | 1.6 | 0.00 | 0.00 | 0.00 | 53 | 1016.5 |
| 20260507021505 | 17 | 63 | 1.6 | 1.6 | 0.00 | 0.00 | 0.00 | 55 | 1016.3 |
| 20260507021008 | 17 | 126 | 1.6 | 1.6 | 0.00 | 0.00 | 0.00 | 56 | 1016.3 |
| 20260507015506 | 17 | 46 | 1.6 | 3.2 | 0.00 | 0.00 | 0.00 | 56 | 1016.3 |
| 20260507015005 | 17 | 18 | 1.6 | 3.2 | 0.00 | 0.00 | 0.00 | 55 | 1016.4 |
| 20260507014505 | 17 | 27 | 1.6 | 3.2 | 0.00 | 0.00 | 0.00 | 54 | 1016.3 |
| 20260507013505 | 17 | 50 | 1.6 | 3.2 | 0.00 | 0.00 | 0.00 | 54 | 1016.3 |
| 20260507013005 | 17 | 66 | 1.6 | 3.2 | 0.00 | 0.00 | 0.00 | 56 | 1016.3 |
| 20260507012505 | 17 | 185 | 3.2 | 4.8 | 0.00 | 0.00 | 0.00 | 55 | 1016.4 |
| 20260507011505 | 17 | 200 | 1.6 | 4.8 | 0.00 | 0.00 | 0.00 | 48 | 1016.0 |
| 20260507011005 | 17 | 58 | 3.2 | 4.8 | 0.00 | 0.00 | 0.00 | 47 | 1016.1 |
| 20260507010505 | 17 | 332 | 4.8 | 4.8 | 0.00 | 0.00 | 0.00 | 47 | 1016.2 |
| 20260507010006 | 17 | 284 | 6.4 | 8.0 | 0.00 | 0.00 | 0.00 | 47 | 1016.2 |
| 20260507005505 | 17 | 269 | 4.8 | 8.0 | 0.00 | 0.00 | 0.00 | 47 | 1016.2 |
| 20260507005005 | 17 | 234 | 3.2 | 4.8 | 0.00 | 0.00 | 0.00 | 48 | 1016.1 |